Location: ??
(35.5322°N, 139.7374°E)
Time: 00:10:15
(UTC+00:00)

Daily predictions for brighter satellites

Satellite Brightness Start Highest point End
(mag) Time Altitude Azimuth Time Altitude Azimuth Time Altitude Azimuth
NOSS 3-1 (A) 3.0 08:38:20 10° SSW 08:43:03 63° ESE 08:48:26 10° NE
CZ-3A R/B 4.5 08:42:44 10° SSE 08:43:33 10° SE 08:44:30 10° SE
Cosmos 1975 3.5 08:42:29 10° SSW 08:46:17 59° W 08:50:07 10° N
Cosmos 2237 Rocket 2.5 08:43:20 10° S 08:48:44 47° ESE 08:54:11 10° NE
USA 308 4.3 08:48:00 10° WNW 08:51:07 31° SW 08:54:26 10° SSE
ISS -3.2 08:49:02 10° NW 08:52:13 40° NE 08:55:24 10° ESE
Cosmos 1766 3.5 08:54:21 10° SSE 08:57:54 41° E 09:01:27 10° NNE
Cosmos 1818 3.7 08:53:29 10° NNW 08:58:54 60° ENE 09:04:15 10° SE
SL-16 R/B 3.6 08:55:58 10° SE 08:59:06 15° E 09:02:15 10° ENE
Cosmos 2098 4.4 08:58:49 10° N 09:02:34 89° WSW 09:05:40 10° S
Cosmos 2181 Rocket 4.5 08:56:35 10° SSW 09:02:58 70° W 09:09:17 10° N
APEX 2.6 09:00:10 10° NNW 09:03:27 85° WSW 09:06:18 10° SSE
Cosmos 1943 Rocket 3.7 09:01:33 10° NNE 09:05:17 18° NE 09:08:00 13° E
BREEZE-M DEB (TANK) 3.2 09:07:06 10° WNW 09:09:11 39° SW 09:12:31 10° SSE
COSMOS 2455 2.9 09:04:42 10° NNW 09:10:41 64° ENE 09:16:37 10° SE
COSMOS 2428 4.2 09:07:03 10° SW 09:12:18 38° WNW 09:17:35 10° N
Cosmos 1703 Rocket 3.7 09:10:51 10° N 09:15:20 82° W 09:19:47 10° S
SL-14 R/B 3.6 09:12:13 10° NNW 09:16:04 68° W 09:19:51 10° S
Okean 2 3.2 09:12:41 10° N 09:16:42 69° E 09:20:41 10° SSE
NOSS 0 Rocket 4.4 09:12:23 10° SSW 09:18:31 66° WNW 09:24:43 10° NNE
Cosmos 1821 Rocket 4.0 09:16:41 10° N 09:23:01 75° E 09:29:23 10° SSE
USA 306 4.1 09:20:49 10° WNW 09:24:20 35° SW 09:27:50 10° SSE
Cosmos 2242 Rocket 3.6 09:22:11 10° N 09:26:40 58° E 09:31:08 10° SSE
Aurora 2 Rocket 4.1 09:27:28 10° SSW 09:29:30 14° S 09:30:44 12° SSE
Tiangong -0.5 09:28:00 10° WNW 09:30:43 26° N 09:32:06 19° NE
TRAILBLAZER 4.5 09:26:18 10° NNW 09:30:50 77° ENE 09:34:38 14° SE
SL-4 R/B 2.1 09:27:16 10° SW 09:31:43 84° NW 09:34:58 17° NE
CZ-4 R/B 2.0 09:34:08 30° E 09:34:40 31° ENE 09:38:04 10° N
USA 305 2.3 09:34:26 10° WNW 09:36:36 42° SW 09:37:04 35° SSW
Cosmos 1470 2.6 09:36:22 10° S 09:40:08 62° E 09:43:58 10° NNE
Nadezhda 3 Rocket 4.1 09:35:01 10° S 09:41:23 81° W 09:47:46 10° N
YAOGAN 1 2.6 09:37:07 10° S 09:41:24 83° WSW 09:45:43 10° NNW
USA 307 3.8 09:40:45 10° WNW 09:42:57 24° SW 09:44:23 16° S
GPS 2-04 Rocket1 3.1 09:41:31 10° SW 09:43:14 27° SSW 09:43:14 27° SSW
Cosmos 1140 Rocket 3.4 09:42:03 10° S 09:47:05 60° ESE 09:52:10 10° NNE
Cosmos 1023 Rocket 4.4 09:42:09 10° S 09:47:11 64° ESE 09:52:19 10° NNE
SJ-6B 3.4 09:48:36 37° ENE 09:48:36 37° ENE 09:51:59 10° N
Meteor 2-5 Rocket 4.4 09:45:14 10° NNE 09:50:13 32° ENE 09:50:22 32° ENE
CZ-4B DEB 4.3 09:45:30 10° S 09:50:56 79° WSW 09:56:24 10° NNW
ADEOS Rocket 4.2 09:54:21 29° E 09:55:45 31° ENE 10:01:55 10° N
Meteor 1-15 Rocket 4.1 09:50:27 10° S 09:56:07 68° E 10:01:43 10° NNE
CZ-4B R/B 3.0 09:58:03 27° SSE 10:00:54 65° ENE 10:06:11 10° N
SME Rocket 4.0 10:02:36 10° SSE 10:10:28 65° ENE 10:15:39 10° N
Cosmos 2251 Rocket 3.4 10:06:21 10° SSW 10:11:39 87° ESE 10:16:56 10° NNE
PSLV R/B 3.8 10:12:16 69° N 10:12:16 69° N 10:15:45 10° NNW
Cosmos 2278 Rocket 2.8 10:06:34 10° NNW 10:12:06 56° WSW 10:17:19 11° S
Okean O Rocket 2.3 10:16:09 43° NNE 10:16:09 43° NNE 10:19:19 10° N
Lacrosse 5 3.9 10:12:48 10° N 10:15:16 15° NNE 10:15:16 15° NNE
USA 229 DEB 4.0 10:11:10 10° SW 10:17:07 57° NW 10:23:35 10° NNE
USA 229 4.0 10:11:14 10° SW 10:17:12 58° NW 10:23:41 10° NNE
Feng Yun 1-1 Rocket 4.2 10:15:38 48° SE 10:17:15 70° ENE 10:22:54 10° N
MOS 1-B 4.2 10:16:51 29° SSE 10:19:56 90° ENE 10:25:45 10° NNW
Landsat 7 4.0 10:19:24 35° S 10:21:19 70° W 10:26:02 10° NNW
BREEZE-M DEB (TANK) 3.7 10:23:56 10° NW 10:26:48 56° NNE 10:26:48 56° NNE
Cosmos 1932 4.5 10:22:09 10° NNW 10:28:31 77° WSW 10:30:22 48° S
ISS -1.1 10:26:35 10° W 10:28:34 16° SW 10:28:34 16° SW
Resurs 1-3 4.1 10:30:14 53° NNW 10:30:14 53° NNW 10:33:36 10° NNW
USA 215 3.7 10:33:47 43° SSE 10:33:47 43° SSE 10:38:35 10° SSW
Cosmos 2369 Rocket 4.1 10:35:31 10° N 10:37:16 17° NNE 10:37:16 17° NNE
SL-16 R/B 2.6 10:37:00 10° SSW 10:42:35 61° WNW 10:48:12 10° NNE
Resurs 01 Rocket 4.1 10:47:40 14° N 10:47:40 14° N 10:48:15 10° N
Cosmos 1605 Rocket 3.8 10:38:55 10° N 10:44:45 82° N 10:44:45 82° N
Cosmos 1943 Rocket 2.5 10:43:53 10° NNW 10:49:27 61° WSW 10:49:34 60° WSW
Milstar 3 Cent rocket 4.0 10:49:22 10° W 11:01:57 40° SSW 11:03:20 38° S
CZ-4 R/B 4.3 11:09:53 14° W 11:09:53 14° W 11:11:30 10° WNW
ADEOS Rocket 4.1 11:41:19 50° W 11:41:19 50° W 11:47:58 10° NNW
CENTAUR R/B 4.2 11:42:39 10° NNW 11:47:44 37° N 11:47:44 37° N
